Weather observations for the past three days for
Kenosha, Kenosha Regional Airport
Imperial (Metric)
Date Time (cdt) Wind (mph) Vis. (mi.) Weather Sky Cond. Temperature (ºF) Relative Humidity Wind Chill (°F) Heat Index (°F) Pressure Precipitation (in)
Air Dwpt 6 hour altimeter (in) sea level (mb) 1 hr 3 hr 6 hr
Max. Min.
14 07:53 NW 3 10.00 Fair CLR 72 57.9 61% 29.97 1014.2
14 06:53 NW 8 10.00 Fair CLR 68 55.9 73 63 65% 29.95 1013.6
14 05:53 NW 5 10.00 Fair CLR 64.9 55 70% 29.94 1013.3
14 04:53 NW 5 10.00 Fair CLR 66.9 55 66% 29.93 1013.1
14 03:53 N 7 10.00 Fair CLR 69.1 57 66% 29.92 1012.7
14 02:53 NW 6 10.00 Fair CLR 71.1 57.9 63% 29.91 1012.2
14 01:53 NW 5 10.00 Fair CLR 71.1 59 66% 29.89 1011.6
14 00:53 NW 5 10.00 Fair CLR 72 59 84.9 68 64% 29.89 1011.4
13 23:53 Calm 10.00 Fair CLR 73.9 59 60% 29.88 1011.3
13 22:53 N 5 10.00 Fair CLR 77 57.9 52% 79 29.88 1011.1
13 21:53 W 3 10.00 Fair CLR 73 60.1 64% 29.88 1011.4
13 20:53 NW 5 10.00 Fair CLR 79 57.9 49% 80 29.85 1010.2
13 19:53 NW 7 10.00 Fair CLR 82 59 46% 82 29.84 1009.8
13 18:53 W 6 10.00 Fair CLR 84.9 57.9 89.1 84.9 40% 84 29.81 1008.8
13 17:53 W 12 10.00 Fair CLR 87.1 59 39% 86 29.8 1008.6
13 16:53 W 9 10.00 A Few Clouds FEW110 86 57 37% 85 29.83 1009.4
13 15:53 W 10 10.00 Fair CLR 88 64 45% 89 29.84 1009.8
13 14:53 NW 6 G 18 10.00 A Few Clouds FEW060 FEW075 87.1 64.9 48% 89 29.84 1009.9
13 13:53 W 13 10.00 A Few Clouds FEW041 87.1 70 57% 92 29.83 1009.5
13 12:53 W 15 G 24 10.00 Partly Cloudy FEW039 SCT080 87.1 69.1 88 73 55% 91 29.83 1009.4
13 11:53 W 17 G 24 10.00 Fair CLR 86 69.1 57% 90 29.81 1008.8
13 10:53 W 20 G 31 10.00 Fair CLR 84 68 59% 87 29.82 1009.0
13 09:53 SW 14 G 25 10.00 Fair CLR 82 66.9 60% 85 29.81 1008.9
13 08:53 SW 13 10.00 Fair CLR 78.1 64.9 64% 80 29.79 1008.3
13 07:53 SW 9 10.00 Fair CLR 77 64.9 66% 79 29.83 1009.6
13 06:53 NW 6 10.00 Mostly Cloudy BKN055 73.9 62.1 75 69.1 67% 29.86 1010.5
13 05:53 SW 8 10.00 Mostly Cloudy BKN110 73.9 62.1 67% 29.83 1009.6
13 04:53 SW 8 10.00 Fair CLR 73.9 61 64% 29.8 1008.5
13 03:53 SW 7 10.00 Mostly Cloudy BKN120 73.9 61 64% 29.81 1008.9
13 02:53 SW 7 10.00 Mostly Cloudy BKN120 72 61 68% 29.82 1009.2
13 01:53 SW 3 10.00 Fair CLR 69.1 61 76% 29.81 1008.8
13 00:53 SW 6 10.00 Partly Cloudy SCT110 73 62.1 84 72 69% 29.82 1009.1
12 23:53 Calm 10.00 Mostly Cloudy BKN120 73.9 62.1 67% 29.83 1009.5
12 22:53 S 5 10.00 Fair CLR 75 61 62% 77 29.83 1009.5
12 21:53 SW 3 10.00 Fair CLR 73.9 61 64% 29.82 1009.1
12 20:53 NW 7 10.00 Fair CLR 79 60.1 52% 80 29.81 1009.0
12 19:53 S 6 10.00 Fair CLR 82.9 59 44% 83 29.81 1009.1
12 18:53 S 7 10.00 Fair CLR 84 60.1 91 84 44% 84 29.83 1009.7
12 17:53 SW 6 10.00 Fair CLR 89.1 60.1 38% 89 29.84 1009.9
12 16:53 SW 10 10.00 Fair CLR 88 57 35% 87 29.86 1010.5
12 15:53 W 10 10.00 Fair CLR 89.1 55 31% 87 29.86 1010.8
12 14:53 SW 10 10.00 Fair CLR 90 54 29% 88 29.87 1011.0
12 13:53 SW 10 G 22 10.00 Fair CLR 89.1 55 31% 87 29.89 1011.5
12 12:53 SW 6 10.00 Fair CLR 87.1 59 88 69.1 39% 86 29.9 1012.0
12 11:53 W 7 10.00 Fair CLR 86 57.9 39% 85 29.91 1012.3
12 10:53 Vrbl 3 10.00 Fair CLR 82.9 63 51% 84 29.91 1012.4
12 09:53 SW 6 10.00 Fair CLR 80.1 63 56% 81 29.91 1012.4
12 08:53 SW 7 10.00 Fair CLR 75.9 61 60% 78 29.91 1012.3
12 06:53 SW 10 10.00 Fair CLR 69.1 57 69.1 63 66% 29.9 1012.2
12 05:53 SW 9 10.00 Fair CLR 66 55.9 70% 29.9 1012.0
12 04:53 SW 6 10.00 Fair CLR 64.9 53.1 66% 29.88 1011.6
12 03:53 SW 9 10.00 Partly Cloudy FEW075 SCT090 66.9 51.1 57% 29.87 1011.1
12 02:53 S 8 10.00 Mostly Cloudy BKN085 66 48.9 54% 29.87 1011.0
12 01:53 SW 7 10.00 Fair CLR 63 48 58% 29.88 1011.5
12 00:53 S 5 10.00 Fair CLR 63 50 71.1 63 63% 29.89 1011.9
11 23:53 S 6 10.00 Fair CLR 64 51.1 63% 29.9 1012.2
11 22:53 S 5 10.00 Fair CLR 63 51.1 65% 29.9 1012.4
11 21:53 S 6 10.00 Partly Cloudy FEW065 SCT080 64.9 50 59% 29.91 1012.5
11 20:53 S 7 10.00 Overcast BKN060 OVC075 68 48 49% 29.9 1012.4
11 19:53 S 8 10.00 Overcast OVC075 69.1 46.9 45% 29.91 1012.8
11 18:53 S 10 10.00 Mostly Cloudy BKN085 71.1 48 79 69.1 44% 29.91 1012.5
11 17:53 S 12 10.00 Partly Cloudy SCT110 72 48.9 44% 29.91 1012.6
11 16:53 SE 10 10.00 Partly Cloudy SCT120 69.1 48.9 49% 29.93 1013.5
11 15:53 SE 9 10.00 A Few Clouds FEW120 70 50 49% 29.94 1013.7
11 14:53 S 9 G 18 10.00 Fair CLR 79 48.9 35% 79 29.96 1014.3
11 13:53 Calm 10.00 Fair CLR 75.9 46.9 36% 78 29.97 1014.8
11 12:53 SW 8 10.00 Fair CLR 75 48.9 75 54 40% 77 29.98 1015.0
11 11:53 W 3 10.00 Fair CLR 73.9 48.9 41% 29.99 1015.5
11 10:53 Vrbl 6 10.00 Fair CLR 70 45 41% 30 1016.0
11 09:53 SW 5 10.00 Fair CLR 66.9 44.1 44% 30.02 1016.4
11 08:53 S 6 10.00 Fair CLR 64 45 50% 30.03 1016.9
Date Time (cdt) Wind (mph) Vis. (mi.) Weather Sky Cond. Air Dwpt Max. Min. Relative Humidity Wind Chill (°F) Heat Index (°F) altimeter (in) sea level (mb) 1 hr 3 hr 6 hr
6 hour
Temperature (ºF) Pressure Precipitation (in)